Terminal Aerodrome Forecast
Issued by NWS Charleston, WV

Current Version | Previous Version | Graphics & Text | Print | Product List | Glossary On
Versions: 1 2 3 4 5 6 7 8 9 10 11 12 13 14 15 16 17 18 19 20 21 22 23
000
FTUS41 KRLX 241129 AAB
TAFBKW
TAF AMD
KBKW 241129Z 2411/2512 18003KT P6SM FEW250
     FM241700 25005KT P6SM SCT050 SCT200
     FM250300 VRB03KT P6SM SCT200=

USA.gov is the U.S. government's official web portal to all federal, state and local government web resources and services.